DW9558 Weather Reports


Display with metric or nautical units.
time (UTC)temp
F
wind
direction
speed
MPH
gust
MPH
rain 1hr
in
rain 24hr
in
rain mn
in
humidity
%
barometer
mb
20260509053017 64 95 0.0 2.0 0.00 0.00 0.00 73 1019.8
20260509051517 65 95 0.0 4.0 0.00 0.00 0.00 72 1019.7
20260509050022 66 95 0.0 6.0 0.00 0.00 0.00 71 1019.7
20260509044516 66 95 0.0 1.0 0.00 0.00 0.00 71 1019.7
20260509043033 67 95 0.0 7.0 0.00 0.00 0.00 70 1019.6
20260509041515 68 95 0.0 3.0 0.00 0.00 0.00 69 1019.5
20260509040014 69 95 0.0 6.0 0.00 0.00 0.00 68 1019.4
20260509034514 70 95 0.0 6.0 0.00 0.00 0.00 67 1019.2
20260509033014 71 95 1.0 8.0 0.00 0.00 0.00 65 1019.2
20260509031517 72 95 3.0 8.0 0.00 0.00 0.00 64 1019.3
20260509030013 74 95 1.0 7.0 0.00 0.00 0.00 64 1019.1
20260509024512 75 95 1.0 8.0 0.00 0.00 0.00 63 1019.0
20260509023020 76 95 1.0 7.0 0.00 0.00 0.00 62 1018.9
20260509021518 77 95 1.0 6.0 0.00 0.00 0.00 60 1018.8
20260509020010 78 95 1.0 7.0 0.00 0.00 0.00 59 1018.9
20260509014509 78 95 1.0 8.0 0.00 0.00 0.00 56 1018.9
20260509013022 79 95 1.0 7.0 0.00 0.00 0.00 55 1019.0
20260509011508 81 94 3.0 9.0 0.00 0.00 0.00 54 1019.0
20260509010006 82 93 0.0 7.0 0.00 0.00 0.00 53 1019.1
20260509004516 83 90 1.0 8.0 0.00 0.00 0.00 52 1019.2
20260509003004 84 89 0.0 8.0 0.00 0.00 0.00 49 1019.3
20260509001503 86 88 1.0 2.0 0.00 0.00 0.00 46 1019.4
20260509000002 86 85 0.0 3.0 0.00 0.00 0.00 45 1019.4
20260508234600 86 85 1.0 4.0 0.00 0.00 0.00 44 1019.5
20260508233130 86 85 0.0 3.0 0.00 0.00 0.00 44 1019.7
20260508231556 85 85 0.0 4.0 0.00 0.00 0.00 45 1019.8
20260508230059 85 84 1.0 6.0 0.00 0.00 0.00 44 1020.0
20260508224550 85 84 1.0 4.0 0.00 0.00 0.00 44 1020.3
20260508223048 83 84 2.0 6.0 0.00 0.00 0.00 47 1020.5
20260508221544 83 84 1.0 7.0 0.00 0.00 0.00 49 1020.8
20260508220046 82 84 1.0 4.0 0.00 0.00 0.00 49 1021.0
20260508214546 82 87 1.0 4.0 0.00 0.00 0.00 48 1021.3
20260508213036 81 87 2.0 7.0 0.00 0.00 0.00 48 1021.5
20260508211536 81 87 1.0 6.0 0.00 0.00 0.00 48 1021.7
20260508210036 80 87 0.0 3.0 0.00 0.00 0.00 51 1021.9
20260508204529 79 87 1.0 6.0 0.00 0.00 0.00 52 1022.0
20260508203028 79 87 1.0 4.0 0.00 0.00 0.00 53 1022.2
20260508201527 79 87 0.0 4.0 0.00 0.00 0.00 53 1022.3
20260508200037 77 87 0.0 3.0 0.00 0.00 0.00 56 1022.4
20260508194521 77 87 0.0 3.0 0.00 0.00 0.00 56 1022.6
20260508193019 76 87 0.0 3.0 0.00 0.00 0.00 56 1022.8
20260508191517 74 87 1.0 7.0 0.00 0.00 0.00 59 1022.9
20260508190012 73 87 0.0 6.0 0.00 0.00 0.00 60 1023.1
20260508184506 71 87 0.0 6.0 0.00 0.00 0.00 62 1023.3
20260508183005 70 87 1.0 6.0 0.00 0.00 0.00 63 1023.3
20260508181607 69 87 0.0 7.0 0.00 0.00 0.00 65 1023.4
20260508180055 68 87 1.0 6.0 0.00 0.00 0.00 66 1023.4
20260508174551 67 87 1.0 8.0 0.00 0.00 0.00 68 1023.5
20260508173049 66 86 2.0 7.0 0.00 0.00 0.00 69 1023.4
20260508171543 65 86 1.0 7.0 0.00 0.00 0.00 71 1023.6
20260508170041 64 86 0.0 6.0 0.00 0.00 0.00 73 1023.5
20260508164542 63 86 1.0 4.0 0.00 0.00 0.00 75 1023.6
20260508163032 61 86 0.0 6.0 0.00 0.00 0.00 78 1023.6
20260508161530 61 86 1.0 4.0 0.00 0.00 0.00 78 1023.6
20260508160024 59 86 0.0 4.0 0.00 0.00 0.00 82 1023.6
20260508154519 58 86 0.0 4.0 0.00 0.00 0.00 84 1023.6
20260508153016 56 86 0.0 6.0 0.00 0.00 0.00 87 1023.6
20260508151514 55 86 0.0 3.0 0.00 0.00 0.00 89 1023.6
20260508150019 54 86 0.0 3.0 0.00 0.00 0.00 89 1023.5
20260508144524 54 86 0.0 4.0 0.00 0.00 0.00 89 1023.6
20260508143009 54 86 0.0 6.0 0.00 0.00 0.00 89 1023.3
20260508141505 53 86 1.0 6.0 0.00 0.00 0.00 90 1022.9
20260508140007 53 86 1.0 4.0 0.00 0.00 0.00 90 1022.9
20260508134602 53 86 1.0 4.0 0.00 0.00 0.00 90 1022.8
20260508133119 53 86 1.0 4.0 0.00 0.00 0.00 91 1022.5
20260508131555 53 86 1.0 4.0 0.00 0.00 0.00 90 1022.5
20260508130054 53 86 1.0 9.0 0.00 0.00 0.00 90 1022.5
20260508124552 53 85 2.0 8.0 0.00 0.00 0.00 90 1022.5
20260508123100 53 85 1.0 6.0 0.00 0.00 0.00 90 1022.5
20260508121549 54 85 0.0 4.0 0.00 0.00 0.00 89 1022.4
20260508120051 54 85 0.0 6.0 0.00 0.00 0.00 90 1022.4
20260508114545 54 85 0.0 4.0 0.00 0.00 0.00 90 1022.2
20260508113100 54 85 0.0 2.0 0.00 0.00 0.00 89 1022.1
20260508111546 54 85 0.0 3.0 0.00 0.00 0.00 89 1022.1
20260508110051 54 85 0.0 2.0 0.00 0.00 0.00 89 1022.1
20260508104541 55 85 1.0 6.0 0.00 0.00 0.00 89 1022.1
20260508103047 55 85 0.0 3.0 0.00 0.00 0.00 89 1022.1
20260508101541 55 85 0.0 2.0 0.00 0.00 0.00 89 1021.9
20260508100039 55 85 0.0 3.0 0.00 0.00 0.00 88 1022.1
20260508094537 55 85 1.0 3.0 0.00 0.00 0.00 88 1022.0
20260508093037 55 85 0.0 6.0 0.00 0.00 0.00 87 1021.8
20260508091538 55 85 0.0 4.0 0.00 0.00 0.00 87 1021.9
20260508090040 56 85 0.0 3.0 0.00 0.00 0.00 86 1021.8
20260508084532 56 85 0.0 4.0 0.00 0.00 0.00 86 1021.7
20260508083037 56 85 0.0 4.0 0.00 0.00 0.00 86 1021.8
20260508081529 56 85 1.0 6.0 0.00 0.00 0.00 86 1021.9
20260508080028 57 85 0.0 8.0 0.00 0.00 0.00 85 1021.9
20260508074535 57 84 1.0 6.0 0.00 0.00 0.00 85 1021.7
20260508073028 58 84 1.0 7.0 0.00 0.00 0.00 85 1021.8
20260508071522 58 84 1.0 6.0 0.00 0.00 0.00 84 1021.6
20260508070019 59 84 0.0 7.0 0.00 0.00 0.00 83 1021.5
20260508064517 59 84 1.0 7.0 0.00 0.00 0.00 82 1021.5
20260508063016 60 84 0.0 6.0 0.00 0.00 0.00 81 1021.5
20260508061518 60 84 0.0 2.0 0.00 0.00 0.00 80 1021.4
20260508060016 61 84 1.0 6.0 0.00 0.00 0.00 80 1021.3
20260508054517 61 84 0.0 3.0 0.00 0.00 0.00 78 1021.2